User: anonymous   Login
Location: Saratoga Springs
(43.0831°N, 73.7850°W)
Time: 22:44:19
(UTC-04:00)
Language:

Transit 4A - Orbit

View from above orbital plane
View from above orbital plane
View from above satellite
View from above satellite

Ground track
Ground track

The orbit data is extracted from the following two-line orbital elements,

1 00116U 61015A   24112.12358806  .00000279  00000-0  27269-3 0  9991
2 00116  66.8123  16.3173 0068713 106.2695 254.5957 13.92023760187142
Epoch (UTC): 21 April 2024 02:57:58
Eccentricity: 0.0068713
inclination: 66.8123°
perigee height: 871 km
apogee height: 972 km
right ascension of ascending node: 16.3173°
argument of perigee: 106.2695°
revolutions per day: 13.92023760
mean anomaly at epoch: 254.5957°
orbit number at epoch: 18714

The dashed part of the orbit path shows where the satellite is in the earth's shadow,  

DLR